Knoxville, IA

8:13 PM CST on February 06, 2016 (GMT -0600)
Knoxville Municipal

Weather History for KOXV - November, 2013

Change the Weather History Date:

Monday, November 18, 2013

  Actual Average Record
Temperature  
Mean Temperature 40 °F -  
Max Temperature 48 °F 49 °F 118 °F (1997)
Min Temperature 32 °F 31 °F 6 °F (2014)
Degree Days  
Heating Degree Days 25    
Moisture  
Dew Point 30 °F    
Average Humidity 71    
Maximum Humidity 87    
Minimum Humidity 46    
Precipitation  
Precipitation 0.00 in - - ()
Sea Level Pressure  
Sea Level Pressure 30.16 in    
Wind  
Wind Speed 11 mph (WNW)    
Max Wind Speed 21 mph    
Max Gust Speed 26 mph    
Visibility 10 miles    
Events      
Averages and records for this station are not official NWS values.
T = Trace of Precipitation, MM = Missing Value Source: NWS Daily Summary

Daily Weather History Graph

Daily Weather History Graph

Search for Another Location

Airport or City:

Trip Planner

Search our weather history database for the weather conditions in past years. The results will help you decide how hot, cold, wet, or windy it might be!

Date:

Astronomy

Nov. 18, 2013 Rise Set
Actual Time 7:04 AM CST 4:50 PM CST
Civil Twilight 6:34 AM CST 5:20 PM CST
Nautical Twilight 6:01 AM CST 5:53 PM CST
Astronomical Twilight 5:28 AM CST 6:26 PM CST
Moon 5:53 PM CST (11/18) 7:53 AM CST (11/18)
Length of Visible Light 10h 45m
Length of Day
9h 45m
Full, 99% of the Moon is Illuminated
Nov 18
Full
Nov 25
Last Quarter
Dec 2
New
Dec 9
First Quarter
Dec 17
Full

Hourly Weather History & Observations

Time (CST) Temp. Windchill Dew Point Humidity Pressure Visibility Wind Dir Wind Speed Gust Speed Precip Events Conditions
12:15 AM 41.0 °F 33.1 °F 35.6 °F 81% 29.97 in 10.0 mi West 15.0 mph - N/A   Mostly Cloudy
12:35 AM 41.0 °F 34.3 °F 35.6 °F 81% 29.97 in 10.0 mi West 11.5 mph - N/A   Partly Cloudy
12:55 AM 39.2 °F 31.6 °F 35.6 °F 87% 29.98 in 10.0 mi West 12.7 mph - N/A   Clear
1:15 AM 39.2 °F 32.0 °F 33.8 °F 81% 29.98 in 10.0 mi West 11.5 mph - N/A   Clear
1:35 AM 39.2 °F 32.5 °F 33.8 °F 81% 29.98 in 10.0 mi West 10.4 mph - N/A   Clear
1:55 AM 37.4 °F 30.3 °F 33.8 °F 87% 29.98 in 10.0 mi West 10.4 mph - N/A   Clear
2:15 AM 39.2 °F 32.0 °F 33.8 °F 81% 29.99 in 10.0 mi West 11.5 mph - N/A   Clear
2:35 AM 37.4 °F 29.8 °F 33.8 °F 87% 30.00 in 10.0 mi West 11.5 mph - N/A   Clear
2:55 AM 37.4 °F 28.9 °F 33.8 °F 87% 30.00 in 10.0 mi WNW 13.8 mph - N/A   Clear
3:15 AM 37.4 °F 29.3 °F 33.8 °F 87% 30.01 in 10.0 mi WNW 12.7 mph - N/A   Clear
3:35 AM 37.4 °F 28.9 °F 33.8 °F 87% 30.01 in 10.0 mi WNW 13.8 mph - N/A   Clear
3:55 AM 37.4 °F 28.9 °F 32.0 °F 81% 30.02 in 10.0 mi WNW 13.8 mph - N/A   Clear
4:15 AM 37.4 °F 29.3 °F 32.0 °F 81% 30.02 in 10.0 mi WNW 12.7 mph - N/A   Clear
4:35 AM 37.4 °F 29.8 °F 32.0 °F 81% 30.04 in 10.0 mi WNW 11.5 mph - N/A   Clear
4:55 AM 35.6 °F 28.6 °F 32.0 °F 87% 30.04 in 10.0 mi West 9.2 mph - N/A   Clear
5:15 AM 35.6 °F 28.0 °F 32.0 °F 87% 30.05 in 10.0 mi WNW 10.4 mph - N/A   Clear
5:35 AM 35.6 °F 27.5 °F 30.2 °F 81% 30.06 in 10.0 mi West 11.5 mph - N/A   Clear
5:55 AM 35.6 °F 27.5 °F 30.2 °F 81% 30.06 in 10.0 mi West 11.5 mph - N/A   Clear
6:15 AM 35.6 °F 28.0 °F 30.2 °F 81% 30.07 in 10.0 mi WNW 10.4 mph - N/A   Clear
6:35 AM 33.8 °F 25.3 °F 30.2 °F 87% 30.08 in 10.0 mi WNW 11.5 mph - N/A   Clear
6:55 AM 33.8 °F 25.8 °F 28.4 °F 81% 30.09 in 10.0 mi WNW 10.4 mph - N/A   Clear
7:15 AM 33.8 °F 25.3 °F 30.2 °F 87% 30.10 in 10.0 mi West 11.5 mph - N/A   Clear
7:35 AM 33.8 °F 24.3 °F 30.2 °F 87% 30.12 in 10.0 mi WNW 13.8 mph - N/A   Clear
7:55 AM 35.6 °F 27.1 °F 30.2 °F 81% 30.13 in 10.0 mi WNW 12.7 mph - N/A   Clear
8:15 AM 35.6 °F 27.1 °F 30.2 °F 81% 30.14 in 10.0 mi WNW 12.7 mph - N/A   Clear
8:35 AM 37.4 °F 28.9 °F 30.2 °F 75% 30.15 in 10.0 mi WNW 13.8 mph 23.0 mph N/A   Clear
8:55 AM 37.4 °F 27.5 °F 30.2 °F 75% 30.16 in 10.0 mi WNW 18.4 mph - N/A   Clear
9:15 AM 37.4 °F 28.5 °F 30.2 °F 75% 30.17 in 10.0 mi WNW 15.0 mph 25.3 mph N/A   Clear
9:35 AM 39.2 °F 29.3 °F 30.2 °F 70% 30.18 in 10.0 mi WNW 20.7 mph - N/A   Clear
9:55 AM 39.2 °F 30.5 °F 30.2 °F 70% 30.19 in 10.0 mi WNW 16.1 mph 26.5 mph N/A   Clear
10:15 AM 41.0 °F 32.2 °F 28.4 °F 61% 30.20 in 10.0 mi WNW 18.4 mph 26.5 mph N/A   Clear
10:35 AM 41.0 °F 32.2 °F 30.2 °F 65% 30.21 in 10.0 mi NW 18.4 mph - N/A   Clear
10:55 AM 42.8 °F 35.1 °F 30.2 °F 61% 30.21 in 10.0 mi NW 16.1 mph 21.9 mph N/A   Clear
11:15 AM 42.8 °F 35.4 °F 30.2 °F 61% 30.21 in 10.0 mi NW 15.0 mph - N/A   Clear
11:35 AM 42.8 °F 35.1 °F 30.2 °F 61% 30.20 in 10.0 mi WNW 16.1 mph - N/A   Clear
11:55 AM 44.6 °F 37.8 °F 28.4 °F 53% 30.20 in 10.0 mi WNW 15.0 mph - N/A   Clear
12:15 PM 44.6 °F 38.4 °F 28.4 °F 53% 30.20 in 10.0 mi WNW 12.7 mph - N/A   Clear
12:35 PM 46.4 °F 41.1 °F 28.4 °F 50% 30.21 in 10.0 mi NW 11.5 mph 19.6 mph N/A   Clear
12:55 PM 46.4 °F 40.7 °F 28.4 °F 50% 30.20 in 10.0 mi WNW 12.7 mph - N/A   Clear
1:15 PM 46.4 °F 40.1 °F 28.4 °F 50% 30.21 in 10.0 mi WNW 15.0 mph - N/A   Clear
1:35 PM 46.4 °F 39.5 °F 26.6 °F 46% 30.21 in 10.0 mi WNW 17.3 mph - N/A   Clear
1:55 PM 48.2 °F - 28.4 °F 46% 30.21 in 10.0 mi WNW 15.0 mph 21.9 mph N/A   Clear
2:15 PM 48.2 °F - 28.4 °F 46% 30.21 in 10.0 mi WNW 11.5 mph - N/A   Clear
2:35 PM 48.2 °F - 28.4 °F 46% 30.21 in 10.0 mi WNW 15.0 mph - N/A   Clear
2:55 PM 48.2 °F - 30.2 °F 50% 30.21 in 10.0 mi NW 13.8 mph - N/A   Clear
3:15 PM 46.4 °F 40.4 °F 28.4 °F 50% 30.21 in 10.0 mi WNW 13.8 mph - N/A   Clear
3:35 PM 46.4 °F 40.7 °F 28.4 °F 50% 30.21 in 10.0 mi WNW 12.7 mph - N/A   Clear
3:55 PM 46.4 °F 41.1 °F 28.4 °F 50% 30.21 in 10.0 mi NW 11.5 mph - N/A   Clear
4:15 PM 44.6 °F 40.7 °F 30.2 °F 57% 30.22 in 10.0 mi NW 6.9 mph - N/A   Clear
4:35 PM 42.8 °F 39.3 °F 30.2 °F 61% 30.22 in 10.0 mi NW 5.8 mph - N/A   Clear
4:55 PM 41.0 °F 37.1 °F 28.4 °F 61% 30.23 in 10.0 mi NW 5.8 mph - N/A   Clear
5:15 PM 42.8 °F 41.1 °F 28.4 °F 57% 30.23 in 10.0 mi North 3.5 mph - N/A   Clear
5:35 PM 42.8 °F 41.1 °F 28.4 °F 57% 30.24 in 10.0 mi North 3.5 mph - N/A   Clear
5:55 PM 41.0 °F - 30.2 °F 65% 30.24 in 10.0 mi Calm Calm - N/A   Clear
6:15 PM 41.0 °F - 28.4 °F 61% 30.24 in 10.0 mi Calm Calm - N/A   Clear
6:35 PM 41.0 °F - 28.4 °F 61% 30.24 in 10.0 mi Calm Calm - N/A   Clear
6:55 PM 39.2 °F 35.9 °F 28.4 °F 65% 30.24 in 10.0 mi ENE 4.6 mph - N/A   Clear
7:15 PM 39.2 °F 35.0 °F 28.4 °F 65% 30.24 in 10.0 mi NE 5.8 mph - N/A   Clear
7:35 PM 39.2 °F 35.0 °F 30.2 °F 70% 30.24 in 10.0 mi NE 5.8 mph - N/A   Clear
7:55 PM 39.2 °F - 30.2 °F 70% 30.24 in 10.0 mi Calm Calm - N/A   Clear
8:15 PM 33.8 °F - 28.4 °F 81% 30.25 in 10.0 mi Calm Calm - N/A   Clear
8:35 PM 37.4 °F 34.9 °F 30.2 °F 75% 30.25 in 10.0 mi East 3.5 mph - N/A   Clear
8:55 PM 37.4 °F 34.9 °F 30.2 °F 75% 30.26 in 10.0 mi ESE 3.5 mph - N/A   Clear
9:15 PM 35.6 °F 32.8 °F 28.4 °F 75% 30.26 in 10.0 mi SE 3.5 mph - N/A   Clear
9:35 PM 35.6 °F 31.7 °F 28.4 °F 75% 30.26 in 10.0 mi SE 4.6 mph - N/A   Clear
9:55 PM 35.6 °F 30.7 °F 28.4 °F 75% 30.26 in 10.0 mi East 5.8 mph - N/A   Clear
10:15 PM 32.0 °F 28.7 °F 26.6 °F 80% 30.27 in 10.0 mi South 3.5 mph - N/A   Clear
10:35 PM 32.0 °F 25.6 °F 28.4 °F 87% 30.27 in - SSE 6.9 mph - N/A   Clear
10:55 PM 35.6 °F 29.9 °F 28.4 °F 75% 30.26 in 10.0 mi SE 6.9 mph - N/A   Clear
11:15 PM 33.8 °F 28.6 °F 28.4 °F 81% 30.27 in 10.0 mi SSE 5.8 mph - N/A   Clear
11:35 PM 33.8 °F 27.7 °F 28.4 °F 81% 30.27 in 10.0 mi SE 6.9 mph - N/A   Clear
11:55 PM 33.8 °F 28.6 °F 28.4 °F 81% 30.27 in 10.0 mi SSE 5.8 mph - N/A   Clear